星链-34219 (STARLINK-34219)

导读 | 星芒AI

STARLINK-34219 是 SpaceX Starlink 项目中的一颗低轨通信卫星,属于第 7 批(v1.5)发射的卫星之一。该卫星于 2022 年 11 月 18 日由猎鹰 9 号火箭送入近地轨道,旨在为全球提供高速互联网服务。该卫星采用先进推进系统,具备自主变轨和避碰能力,运行在约 550 公里高度的轨道上,有助于减少延迟并提升网络性能。作为 Starlink 卫星群的一部分,它支持全球范围内的宽带连接,特别是在偏远和网络基础设施薄弱的地区。

基本信息
目录编号:
64270
目录名称:
STARLINK-34219
国际标识:
2025-120Q
轨道中心:
EARTH
卫星名称:
星链-34219
卫星全名:
星链-34219 (STARLINK-34219)
卫星状态:
在轨 (已飞行149 天)
发射日期:
2025-06-04 UTC
国别 :
美国 (US)
星等 :
--
轨道信息
数据来源 国际轨道数据
星历时间: 2025-10-30T19:04:52+0800
17小时前
查看轨道信息
半长轴: 6853.566km
偏心率: 0.0001414
轨道倾角: 53.158°
近地点辐角 93.795°
升交点赤经 1.874°
平近点角 266.321°
近地点: 474.461km
远地点: 476.401km
周期: 94.110分钟
每日圈数: 15.301285
详细信息
固有亮度:
5
最大亮度:
2.5
卫星平台:
Starlink V1.0
覆盖范围:
全球
运营商:
太空探索技术公司
运营商所在国:
美国
制造商(研发单位):
太空探索技术公司
制造商所在国:
美国
使用方式:
暂无
卫星简介
Starlink 计划是 SpaceX 推出的全球卫星互联网项目,通过发射低轨道卫星,为全球尤其是偏远地区提供高速、低延迟的互联网服务。自 2019 年起,Starlink 已部署数千颗卫星,旨在缩小全球数字鸿沟,推动互联网普及。该项目还为军事、航空等行业提供通信支持,带来广泛经济效益。
2D轨道图
3D轨道图
轨道高度分析图
轨道倾角分析图
轨道综合分析图
查看轨道综合分析图